www.pogodaiklimat.ru

Погода и климат >> Архив погоды >> Россия >> Магаданская область >> Мыс Алевина


ПОГОДА на Мысе Алевина

  • Прогноз погоды на Мысе Алевина
  • Монитор погоды на Мысе Алевина
  • Климат города

АРХИВ ПОГОДЫ на Мысе Алевина

Время (UTC), дата Ветер
(напр.,м/с)
 
Видим.   Явления Облачность Т
(С)
Тd
(С)
f
(%)
Тe
(С)
Тes
(С)
Комфортность P
(гПа)
Po
(гПа)
Тmin
(С)
Tmax
(С)
R
(мм)
R24
(мм)
S
(см)
06 19.04 З 2 50 км ясно +3.4 -8.2 42 +1 +5 1018.7 1010.6
09 19.04 ЮВ 1 50 км ясно -0.7 -3.8 80 -3 -3 1019.1 1010.8 +0.9
12 19.04 С 2 50 км ясно -1.8 -2.9 92 -6 -6 1018.2 1009.9
15 19.04 С 4 50 км ясно -2.3 -4.2 87 -8 -8 1016.9 1008.6
18 19.04 СВ 2 50 км 10/10 600 м
[Cb cap]
0.0 -5.7 65 -3 -3 1015.9 1007.6
21 19.04 В 2 50 км 10/10 1000 м
[Sc]
+1.3 -3.5 70 -2 -2 1015.7 1007.5 -2.3 23
00 20.04 СЗ 1 50 км 9/9 1000 м
[Sc]
+2.2 -4.2 63 +1 +2 1015.3 1007.1
03 20.04 С 2 50 км 4/3 1000 м
[Sc Ci fib]
+3.1 -4.4 58 +1 +8 1014.1 1006.0
06 20.04 ЮВ 5 50 км 3/3 600 м
[Cu Sc]
+3.9 -1.0 70 -1 +1 1013.7 1005.6
09 20.04 ЮВ 1 50 км 3/1 600 м
[Cu hum Cs]
+1.7 -1.1 82 0 0 1014.4 1006.2 +5.7
12 20.04 В 3 н/о н/о +3.7 -1.9 67 0 0 1014.3 1006.2 +5.7
15 20.04 В 6 50 км ясно +4.3 -2.8 60 -1 -1 1014.1 1006.0
18 20.04 В 6 50 км 3/0
[Cs]
+2.7 -3.1 66 -3 -3 1014.0 1005.9
21 20.04 В 4 50 км ясно +3.7 -3.6 59 -0 +1 1014.7 1006.6 -0.7 18
00 21.04 ЮВ 4 50 км 4/1 1000 м
[Sc Ac lent Ci fib]
+3.3 -2.1 68 -1 +4 1014.5 1006.4
03 21.04 В 7-11
{11}
50 км 8/3 1000 м
[Sc Ac lent Cs]
+6.7 -4.1 46 +2 +4 1013.7 1005.7
06 21.04 В 4
{11}
50 км 9/1 1000 м
[Sc Ac lent Cs]
+5.6 -2.8 55 +2 +4 1014.0 1005.9
09 21.04 В 6
{11}
50 км 8/1 1000 м
[Sc Ac lent Cs]
+4.0 -2.2 64 -1 -1 1014.4 1006.3 +7.3
12 21.04 В 7-10
{11}
50 км 4/3 1000 м
[Sc Cs]
+3.9 -2.0 65 -2 -2 1015.1 1007.0
15 21.04 В 5
{11}
50 км ясно +3.3 -2.1 68 -2 -2 1015.3 1007.2
18 21.04 СВ 3
{13}
50 км 3/3 1000 м
[Sc Ac lent]
+4.4 -1.7 65 +1 +1 1015.4 1007.3
21 21.04 СВ 6
{10}
50 км 8/5 1000 м
[Sc Cc]
+6.1 -2.1 56 +2 +2 1016.4 1008.3 +1.9 14
00 22.04 В 8-12
{13}
50 км 6/6 1000 м
[Sc]
+6.0 -3.7 50 +1 +2 1016.7 1008.6
03 22.04 ЮВ 2
{12}
50 км 3/3 1000 м
[Sc]
+3.9 -2.0 65 +1 +9 опасность
простуды
1017.3 1009.2
06 22.04 ЮВ 3 50 км 4/0
[Ci fib]
+2.0 -2.7 71 -2 +1 1017.9 1009.7
09 22.04 штиль 0 50 км ясно +0.7 -1.9 83 -0 -0 1018.9 1010.7 +6.6
12 22.04 СЗ 3 50 км ясно -1.7 -2.5 94 -7 -7 1020.1 1011.8
15 22.04 С 4 50 км ясно -2.3 -3.2 94 -8 -8 1020.3 1012.0
18 22.04 С 5 50 км ясно -2.4 -3.6 91 -9 -9 1020.0 1011.7
21 22.04 С 2 50 км ясно -1.0 -6.4 67 -4 -2 1020.1 1011.8 -3.0 12
00 23.04 СЗ 2 50 км 3/0
[Cs]
+3.2 -7.2 46 +1 +10 опасность
простуды
1020.3 1012.2
03 23.04 СЗ 3 50 км 5/0
[Ci]
+3.5 -5.8 51 0 +8 1020.6 1012.5
06 23.04 СЗ 3 50 км 4/0
[Ci fib]
+2.1 -2.7 71 -2 +2 1020.7 1012.5
09 23.04 СЗ 4 50 км 3/0
[Ci fib]
-0.2 -2.0 88 -6 -6 1021.4 1013.1 +4.2
12 23.04 С 2 50 км 3/0
[Ci fib]
+0.9 -4.0 70 -2 -2 1021.9 1013.7
15 23.04 С 3 50 км ясно +1.4 -6.9 54 -2 -2 1022.2 1014.0
18 23.04 штиль 0 50 км 3/0
[Ci fib]
+1.9 -6.1 55 +1 +1 1022.4 1014.2
21 23.04 ЮВ 2 50 км ясно +2.0 -6.0 55 -1 +2 1023.0 1014.8 -0.6 10
00 24.04 ЮВ 3 50 км ясно +1.7 -3.4 69 -2 +6 1022.6 1014.4
03 24.04 З 3 50 км ясно +2.7 -4.6 59 -1 +8 1021.9 1013.8
06 24.04 СЗ 2 50 км ясно +2.2 -3.1 68 -1 +4 1021.2 1013.0
09 24.04 СЗ 4 50 км ясно +0.3 -2.0 85 -5 -5 1020.3 1012.0 +3.3
12 24.04 СЗ 1 50 км ясно -0.6 -2.7 86 -3 -3 1020.0 1011.7
15 24.04 С 3 50 км ясно +1.0 -3.2 74 -3 -3 1018.8 1010.6
18 24.04 С 3 50 км ясно +0.2 -4.0 73 -4 -4 1018.6 1010.3
21 24.04 штиль 0 50 км ясно +3.1 -2.7 66 +2 +6 1017.5 1009.4 -1.1 3
00 25.04 З 1 50 км ясно +3.4 -3.3 61 +2 +13 опасность
простуды
1017.3 1009.2
03 25.04 Ю 1 50 км ясно +5.1 -3.5 54 +4 +17 опасность
простуды
1016.2 1008.1
06 25.04 СЗ 4 50 км ясно +1.2 -0.6 88 -4 -1 1015.2 1007.0
09 25.04 С 4 50 км ясно +0.1 -1.6 88 -5 -5 1014.7 1006.4 +5.4
12 25.04 СЗ 6 500 м туман ?/? -3.0 -3.1 99 -11 -11 1014.1 1005.8
15 25.04 СЗ 6 500 м туман ?/? -3.4 -3.5 99 -11 -11 1013.1 1004.9
18 25.04 СЗ 7 500 м туман ?/? -3.7 -3.6 100 -12 -12 1012.1 1003.8
21 25.04 СЗ 6 2000 м туман местами 10/0
[As op]
-3.4 -3.5 99 -11 -11 1011.2 1003.0 -3.9 3
00 26.04 СЗ 6 2000 м туман на расстоянии 10/0
[As trans]
-2.4 -2.7 98 -10 -8 1011.1 1002.9
03 26.04 С 5 4000 м туман местами ясно -2.0 -2.3 98 -9 -3 1010.6 1002.4

 

Местоположение метеостанции Мыс Алевина (Магаданская область, Россия): широта 58.83 долгота 151.30 высота над уровнем моря 65 м.

В архиве по умолчанию представлена погода на Мысе Алевина за последнюю неделю. Архивные данные за месяц целиком и за предыдущие месяцы, начиная с января 2011 года, Вы можете получить, выбрав интересующий диапазон дат из раскрывающегося списка и нажав кнопку "Ввод!".

Внимание! Время в таблицах - всемирное. Для получения местного времени необходимо прибавить поправку, которая на Мысе Алевина равна 11 ч.

Смотрите также архив погоды в соседних городах и на ближайших метеорологических станциях:

Погода в Оле (Магаданская область, Россия) (81 км)
Погода в Магадане (Магаданская область, Россия) (87 км)
Погода в Армани (Магаданская область, Россия) (115 км)
Погода на Мысе Братьев (Магаданская область, Россия) (119 км)
Погода на Остров Спафарьева (Магаданская область, Россия) (137 км)
Погода в Палатке (Магаданская область, Россия) (143 км)
Погода в Талоне (Магаданская область, Россия) (185 км)
Погода в Брохово (Магаданская область, Россия) (188 км)
Погода в Мадауне (Магаданская область, Россия) (200 км)
Погода в Талае (Магаданская область, Россия) (262 км)

Пояснения к столбцам:

Ветер - указаны скорость ветра в м/с - средняя за 10 мин, порывы в срок и между сроками (в фигурных скобках) и направление, откуда дует ветер: С - северный, СВ - северо-восточный, В - восточный, ЮВ - юго-восточный, Ю - южный, ЮЗ - юго-западный, З - западный, СЗ - северо-западный.
Видимость - горизонтальная дальность видимости в метрах или километрах. При видимости от 1 до 10 км при отсутствии осадков обычно наблюдается дымка, при ухудшении видимости до 1 км и менее - туман. В сухую погоду видимость может ухудшаться дымом, пылью или мглою.
Явления - указаны атмосферные явления, наблюдавшиеся в срок или в последний час перед сроком; фигурными скобками обозначены явления, наблюдавшиеся между сроками (за 1-3 часа до срока); квадратными скобками обозначены град или гололедные отложения с указанием их диаметра в мм.
Облачность - указаны через наклонную черту общая и нижняя облачность в баллах и высота нижней границы облаков в метрах; квадратными скобками обозначены формы облаков: Ci - перистые, Cs - перисто-слоистые, Cc - перисто-кучевые, Ac - высококучевые, As - высокослоистые, Sc - слоисто-кучевые, Ns - слоисто-дождевые, Cu - кучевые, Cb - кучево-дождевые. Подробнее классификацию облаков см. в Атласе облаков (PDF).
T - Температура воздуха - температура, измеренная на высоте 2 м над землей.
Td - Температура точки росы - температура, при понижении до которой содержащийся в воздухе водяной пар достигнет насыщения.
f - Относительная влажность воздуха - влажноcть воздуха, измеренная на высоте 2 м над землей.
Te - Эффективная температура - температура, которую ощущает одетый по сезону человек в тени. Характеристика душности погоды. При расчете учитывается влияние влажности воздуха и скорости ветра на теплоощущения человека.
Tes - Эффективная температура на солнце - температура, которую ощущает человек, с поправкой на солнечный нагрев. Характеристика знойности погоды. Зависит от высоты солнца над горизонтом, облачности и скорости ветра. Ночью, в пасмурную погоду, а также при ветре 12 м/с и более поправка равна нулю.
P - Атмосферное давление - приведенное к уровню моря атмосферное давление.
Po - Атмосферное давление - измеренное на уровне метеостанции атмосферное давление.
Tmin - Минимальная температура - минимум температуры воздуха на высоте 2 м над землей.
Tmax - Максимальная температура - максимум температуры воздуха на высоте 2 м над землей.
R - Количество осадков - Количество выпавших осадков за период времени, мм. При наведении курсора мыши на число - период времени, за который выпало указанное количество осадков.
R24 - Количество осадков - Количество выпавших осадков за 24 часа, мм.
S - Снежный покров - Высота снежного покрова, см. При наведении курсора мыши на число - состояние снежного покрова и степень покрытия местности в баллах.